sat.trackr.live / text

‹ back to catalog

STARLINK-1942

NORAD 46794 · 2020-074BH

PAYLOAD ACTIVE UNKNOWN

§ Identity

Operator
Country
US
Launch date
2020-10-24
Launch site
AFETR
Launch vehicle
Mass (kg)
RCS (m²)

Purposes: comms

External: N2YO · Heavens-Above · Gunter

§ Orbital elements

Epoch: 2026-09-10T02:51:31.396896Z

Period
89.68 min
Inclination
53.0252°
Eccentricity
0.0006059
Mean motion
16.05696045 rev/d
Perigee alt
254.7 km
Apogee alt
262.7 km
Semi-major
6,636.8 km
B*
9.1383e-4
RAAN
103.2167°
Arg perigee
230.2929°
Mean anomaly
129.7569°
Rev number
32,602

§ Raw data

STARLINK-19421 46794U 20074BH  26253.11911339  .00670834  23307-3  91383-3 0  99922 46794  53.0252 103.2167 0006059 230.2929 129.7569 16.05696045326020

JSON: /api/v1/satellites/46794 · /tle

For live sub-satellite position, see the globe view (requires WebGL).

§ Visibility from observer

Set your observer location to see the next 7 days of passes ≥ 10°. The values pass through the URL so the page stays shareable.

No JS? Fill the form by hand. The geolocation button needs JavaScript.